{"data":{"norad_id":62218,"epoch":"2026-05-25T02:34:50.356128Z","epoch_age_seconds":76138,"freshness":"FRESH","line1":"1 62218U 24231A   26145.10752727  .00147318  00000+0  11976-2 0  9999","line2":"2 62218  53.1568  84.5664 0000923  71.9500 288.1619 15.69745731 85419","mean_motion":15.69745731,"eccentricity":9.23e-5,"inclination_deg":53.1568,"raan_deg":84.5664,"arg_perigee_deg":71.95,"mean_anomaly_deg":288.1619,"bstar":0.0011976,"rev_number":8541,"period_min":91.734602079959,"perigee_km":359.00260852758,"apogee_km":360.2463993012,"semimajor_km":6737.7615039144,"source":"CELESTRAK","updated_at":"2026-05-25T13:38:19.612925Z"}}